Skip Navigation Links
NOAA logo - Click to go to the NOAA homepage
NOAA's National Weather Service
Alaska Aviation Weather Unit
  NWS logo - Click to go to the NWS homepage
Left Navbar Graphic     21 AKDT = 05 GMT

   
NOAA is celebrating 200 years of science, service, and stewardship. Visit the NOAA 200th celebration Web site to learn more.
USA.gov is the U.S. Government's official Web portal to all Federal, state and local government Web resources and services.
Facebook
NWS on Facebook

Important Change Regarding the AAWU Web Presence

 

Over the last several months, the AAWU has been working to navigate its webpages to a nationally supported server. Security, as well as other needs, have necessitated the change.  In the process, we have made an effort to enhance the functionality of our website, as well as some of our products. As of June 27, 2017, aawu.arh.noaa.gov will be discontinued. The new AAWU web address is weather.gov/aawu. It is now live and will run in-parallel with the old site until it is discontinued. Please send any feedback or questions regarding the new webpages to nws.ar.aawu.webauthors@noaa.gov.  Thank you for your patience during this time of transition.
AAWU Home :: Display TAF Add Bookmark
TAF PANC 242320Z 2500/2606 25005KT P6SM SCT040
     FM250900 18005KT P6SM BKN070
     FM251600 VRB03KT P6SM SCT070
     FM252000 28007KT P6SM FEW070=
METAR PANC 242353Z VRB06KT 10SM SCT035 BKN200 19/11 A3008=

METAR PANC 250053Z 30007KT 10SM SCT035 BKN200 18/12 A3007=

METAR PANC 250153Z 28007KT 10SM SCT035 BKN200 19/10 A3005=

METAR PANC 250253Z 27006KT 10SM FEW045 SCT200 19/10 A3004=

METAR PANC 250353Z 26006KT 10SM FEW050 SCT200 19/10 A3003=

METAR PANC 250453Z 33004KT 10SM FEW050 SCT200 18/12 A3002 RMK AO2 SLP166
     CB DSNT N STNRY T01780117=


NOAA's National Weather Service
Alaska Aviation Weather Unit
6930 Sand Lake Road
Anchorage, AK 99502-1845
Disclaimer
Credits
Glossary
Privacy Policy
About Us
Career Opportunities
Contact AAWU Internet Services Site last modified: April, 17th 2012